Tracking 29487 objects as of 11-Sep-2024
HD Live streaming from Space Station
objects crossing your sky now

FENGYUN 1C DEB

Track FENGYUN 1C DEB now!
10-day predictions


NORAD ID: 37065
Int'l Code: 1999-025EEZ
Perigee: 833.5 km
Apogee: 1,284.3 km
Inclination: 103.3 °
Period: 106.2 minutes
Semi major axis: 7429 km
RCS: 0.0153 m2 (small)
Launch date: May 10, 1999
Source: People's Republic of China (PRC)
Launch site: Taiyaun Space Center, China (TSC)

Note: This is SATELLITE DEBRIS
Your satellite tracking list
Your tracking list is empty




NASA's NSSDC Master Catalog

Two Line Element Set (TLE):
1 37065U 99025EEZ 24247.22532815  .00003147  00000-0  34425-2 0  9998
2 37065 103.2983 253.6791 0303391 167.6362 193.2420 13.55586412158850
Source of the keplerian elements: AFSPC